STARLINK-35386, 65862

Orbit data source: Space-Track

STARLINK-35386, 65862 is a payload satellite owned by SpaceX/Seattle (US) in LEO that was launched on Fri, 03 Oct 2025 UTC via an FALCON 9 launch vehicle from the Air Force Western Test Range (AFWTR). Payload-class satellites include a variety of spacecraft equipped with specific instruments for various scientific and technological missions. These include communications satellites like Starlink; space stations such as the ISS; scientific satellites like the Hubble; Earth observation satellites from companies like Planet Labs, Umbra, and HawkEye 360; GPS; miniature CubeSats for education and research; and military/defense satellites.

Loading next visibility...
Identifier
65862, 2025-223J
Orbit
LEO
Country
Flag of USUS
Related business
Manufacturer
SpaceX/Seattle
Mission
Operational spacecraft
Bus & Motor
STARLINK V2MO, Unknown motor
Mass
575 kg wet, ~530 kg dry
Launch date (UTC)
2025-10-03 (2 weeks ago)
Launch vehicle
FALCON 9
Launch site
Air Force Western Test Range (AFWTR)
Object type
Payload
Rocket body
Debris
Shape & HBR
Unknown
Radar Cross Section
RCS unknown

Expand to show TLE details & history
Last TLE update: 8 hours ago

TLE from 8 hours ago
0 STARLINK-35386
1 65862U 25223J   25291.14616725 -.01738052  00000-0 -16426-1 0  9990
2 65862  53.1554 240.3911 0003991 176.6344 183.4701 15.69514892  2326
Epoch: 2025-10-18T03:30Z
TLE epoch observation values (Epoch: 2025-10-18T03:30:28.850Z)
Latitude
-0.00004°
Longitude
160.88948°
Altitude
363.884 km
Speed
7.691 km/s
True Right ascension
16h 01m 33s
True Declination
0° 00' 00"
Sunlit
Object was in daylight at epoch
Visualization orbit readout
Latitude
Unknown
Longitude
Unknown
Altitude
Unknown
Speed
Unknown
Apparent Right ascension
Unknown
Apparent Declination
Unknown
Sunlit
N/A
Visualization observer readout
Local Sidereal Time
05:55:48
Azimuth
Unknown
Elevation
Unknown
Doppler factor
Unknown
Orbital elements
Apogee altitude
363.236 km
Perigee altitude
357.857 km
Semi-major axis
6,738.684 km
Eccentricity
0.0004
Inclination
53.1554°
RAAN
240.3911°
Arg. of periapsis
176.6344°
True anomaly
183.46733°
Mean anomaly
183.4701°
Eccentric anomaly
183.46872°
Mean motion
3.92356 °/min
Orbital period
91.75 mins
BSTAR
-0.016426
Loading maneuver chart data...
Computing Atmospheric mass density...
Loading historical data...
Loading historical data...
Loading historical data...
Loading historical data...
Loading historical data...
Loading historical data...
Loading historical data...

Documentation

Showing up to 5 results
|